Radiation Dose at Monitoring Post of Fukushima Daini Nuclear Power Station
Date,Time,MP-1(microSv/h),MP-2(microSv/h),MP-3(microSv/h),MP-4(microSv/h),MP-5(microSv/h),MP-6(microSv/h),MP-7(microSv/h),Wind Direction,Wind Velocity(m/s),Rain
2023/10/27,00:00,0.151,0.136,0.221,0.210,0.212,0.122,0.078,northwest,3.2,No
2023/10/27,00:10,0.150,0.135,0.221,0.208,0.211,0.122,0.078,northwest,3.3,No
2023/10/27,00:20,0.151,0.137,0.222,0.208,0.212,0.122,0.079,northwest,2.9,No
2023/10/27,00:30,0.150,0.137,0.221,0.210,0.211,0.123,0.078,northwest,2.2,No
2023/10/27,00:40,0.151,0.135,0.220,0.209,0.213,0.122,0.078,northwest,2.3,No
2023/10/27,00:50,0.151,0.137,0.220,0.209,0.210,0.122,0.077,west-northwest,1.8,No
2023/10/27,01:00,0.150,0.137,0.220,0.209,0.212,0.123,0.076,west-northwest,2.0,No
2023/10/27,01:10,0.151,0.136,0.221,0.209,0.210,0.122,0.078,west-northwest,2.2,No
2023/10/27,01:20,0.151,0.136,0.222,0.209,0.211,0.123,0.077,west-northwest,2.5,No
2023/10/27,01:30,0.151,0.136,0.221,0.210,0.213,0.122,0.079,west-northwest,2.6,No
2023/10/27,01:40,0.151,0.136,0.221,0.209,0.211,0.121,0.077,west-northwest,2.2,No
2023/10/27,01:50,0.150,0.136,0.221,0.210,0.211,0.122,0.077,west-northwest,2.9,No
2023/10/27,02:00,0.150,0.136,0.221,0.209,0.210,0.123,0.078,west-northwest,3.0,No
2023/10/27,02:10,0.150,0.137,0.221,0.209,0.211,0.122,0.078,west-northwest,2.9,No
2023/10/27,02:20,0.149,0.136,0.222,0.209,0.212,0.123,0.077,west-northwest,2.8,No
2023/10/27,02:30,0.151,0.137,0.222,0.208,0.212,0.124,0.077,west,4.3,No
2023/10/27,02:40,0.151,0.137,0.220,0.209,0.213,0.122,0.077,west,3.7,No
2023/10/27,02:50,0.150,0.136,0.222,0.209,0.212,0.123,0.078,west,3.0,No
2023/10/27,03:00,0.151,0.136,0.221,0.208,0.212,0.122,0.078,west-northwest,2.8,No
2023/10/27,03:10,0.150,0.136,0.221,0.208,0.212,0.122,0.078,west,2.9,No
2023/10/27,03:20,0.150,0.136,0.221,0.209,0.211,0.121,0.078,west,3.1,No
2023/10/27,03:30,0.151,0.137,0.221,0.208,0.211,0.123,0.077,west-northwest,2.7,No
2023/10/27,03:40,0.151,0.136,0.220,0.208,0.212,0.122,0.078,west-northwest,3.5,No
2023/10/27,03:50,0.151,0.136,0.221,0.208,0.211,0.123,0.077,west-northwest,2.6,No
2023/10/27,04:00,0.151,0.136,0.222,0.210,0.212,0.122,0.078,west-northwest,1.0,No
2023/10/27,04:10,0.150,0.136,0.219,0.208,0.211,0.122,0.078,-,CALM,No
2023/10/27,04:20,0.151,0.136,0.221,0.209,0.212,0.123,0.078,-,CALM,No
2023/10/27,04:30,0.150,0.136,0.222,0.209,0.212,0.122,0.077,northeast,0.8,No
2023/10/27,04:40,0.151,0.136,0.222,0.208,0.210,0.123,0.078,-,CALM,No
2023/10/27,04:50,0.151,0.136,0.220,0.209,0.212,0.123,0.078,south-southwest,0.9,No
2023/10/27,05:00,0.151,0.136,0.220,0.208,0.210,0.123,0.078,south,1.1,No
2023/10/27,05:10,0.150,0.137,0.221,0.207,0.212,0.122,0.078,west-southwest,0.8,No
2023/10/27,05:20,0.151,0.136,0.220,0.209,0.213,0.123,0.077,west-southwest,1.5,No
2023/10/27,05:30,0.150,0.137,0.222,0.209,0.211,0.123,0.077,south-southwest,1.4,No
2023/10/27,05:40,0.150,0.137,0.221,0.207,0.212,0.122,0.078,south-southwest,1.6,No
2023/10/27,05:50,0.151,0.136,0.220,0.209,0.211,0.123,0.078,south-southwest,2.0,No
2023/10/27,06:00,0.150,0.136,0.221,0.208,0.210,0.122,0.077,southwest,1.4,No
2023/10/27,06:10,0.150,0.136,0.222,0.208,0.212,0.122,0.077,west-southwest,2.3,No
2023/10/27,06:20,0.150,0.136,0.222,0.209,0.210,0.122,0.078,southwest,3.1,No
2023/10/27,06:30,0.151,0.136,0.221,0.208,0.212,0.123,0.078,south-southwest,1.6,No
2023/10/27,06:40,0.150,0.136,0.221,0.207,0.212,0.123,0.078,south-southwest,2.5,No
2023/10/27,06:50,0.150,0.136,0.221,0.208,0.211,0.121,0.077,south,1.7,No
2023/10/27,07:00,0.150,0.136,0.220,0.208,0.212,0.123,0.079,south,2.5,No
2023/10/27,07:10,0.151,0.136,0.222,0.208,0.211,0.122,0.078,south-southwest,3.1,No
2023/10/27,07:20,0.150,0.137,0.221,0.208,0.212,0.122,0.078,south-southwest,2.9,No
2023/10/27,07:30,0.150,0.136,0.220,0.207,0.210,0.123,0.078,south-southwest,3.1,No
2023/10/27,07:40,0.151,0.136,0.221,0.208,0.212,0.123,0.078,south-southwest,2.8,No
2023/10/27,07:50,0.149,0.137,0.220,0.206,0.210,0.122,0.078,southwest,3.2,No
2023/10/27,08:00,0.152,0.135,0.220,0.208,0.212,0.123,0.078,southwest,3.0,No
2023/10/27,08:10,0.150,0.136,0.222,0.206,0.210,0.121,0.078,west-southwest,3.1,No
2023/10/27,08:20,0.150,0.135,0.220,0.209,0.212,0.123,0.077,southwest,2.6,No
2023/10/27,08:30,0.150,0.135,0.219,0.206,0.209,0.123,0.078,southwest,2.2,No
2023/10/27,08:40,0.150,0.136,0.221,0.209,0.212,0.121,0.078,south-southwest,1.9,No
2023/10/27,08:50,0.150,0.136,0.219,0.208,0.210,0.122,0.077,southeast,1.2,No
2023/10/27,09:00,0.151,0.135,0.220,0.206,0.212,0.122,0.077,southeast,1.4,No
2023/10/27,09:10,0.150,0.136,0.219,0.209,0.210,0.122,0.077,southeast,1.5,No
2023/10/27,09:20,0.151,0.135,0.219,0.207,0.209,0.122,0.077,east-southeast,1.4,No
2023/10/27,09:30,0.149,0.136,0.220,0.206,0.212,0.122,0.077,east,2.3,No
2023/10/27,09:40,0.151,0.136,0.221,0.209,0.210,0.122,0.078,southeast,1.9,No
2023/10/27,09:50,0.150,0.136,0.220,0.207,0.209,0.123,0.077,east-southeast,1.8,No
2023/10/27,10:00,0.150,0.137,0.219,0.208,0.211,0.121,0.078,east-northeast,1.5,No
2023/10/27,10:10,0.150,0.135,0.221,0.207,0.213,0.122,0.079,east,1.3,No
2023/10/27,10:20,0.151,0.136,0.219,0.209,0.210,0.123,0.078,east-northeast,1.6,No
2023/10/27,10:30,0.150,0.137,0.221,0.208,0.211,0.122,0.078,northeast,2.2,No
2023/10/27,10:40,0.152,0.135,0.221,0.206,0.212,0.122,0.078,northeast,1.3,No
2023/10/27,10:50,0.151,0.136,0.221,0.208,0.211,0.123,0.077,northeast,1.8,No
2023/10/27,11:00,0.149,0.136,0.218,0.209,0.210,0.122,0.078,northeast,1.4,No
2023/10/27,11:10,0.151,0.135,0.222,0.208,0.213,0.122,0.078,north-northeast,1.5,No
2023/10/27,11:20,0.151,0.137,0.219,0.207,0.212,0.123,0.078,east-northeast,1.5,No
2023/10/27,11:30,0.149,0.136,0.219,0.210,0.210,0.122,0.079,northeast,1.4,No
2023/10/27,11:40,0.151,0.135,0.222,0.210,0.211,0.123,0.078,east-northeast,1.6,No
2023/10/27,11:50,0.151,0.136,0.220,0.207,0.212,0.123,0.077,northeast,1.5,No
2023/10/27,12:00,0.150,0.136,0.220,0.208,0.211,0.122,0.078,northeast,1.7,No
2023/10/27,12:10,0.148,0.135,0.222,0.211,0.210,0.122,0.078,northeast,1.2,No
2023/10/27,12:20,0.151,0.137,0.221,0.209,0.213,0.123,0.078,northeast,2.0,No
2023/10/27,12:30,0.151,0.136,0.219,0.208,0.213,0.122,0.078,east-northeast,1.8,No
2023/10/27,12:40,0.150,0.135,0.220,0.209,0.210,0.122,0.078,northeast,2.3,No
2023/10/27,12:50,0.148,0.137,0.222,0.208,0.209,0.122,0.077,northeast,1.8,No
2023/10/27,13:00,0.151,0.136,0.220,0.207,0.209,0.122,0.077,north-northeast,1.7,No
2023/10/27,13:10,0.152,0.136,0.219,0.207,0.211,0.122,0.078,northeast,1.3,No
2023/10/27,13:20,0.150,0.135,0.220,0.206,0.212,0.123,0.078,east-northeast,1.8,No
2023/10/27,13:30,0.150,0.136,0.223,0.210,0.212,0.124,0.078,northeast,1.7,No
2023/10/27,13:40,0.152,0.137,0.220,0.209,0.211,0.123,0.078,north-northeast,1.1,Yes
2023/10/27,13:50,0.150,0.136,0.222,0.207,0.213,0.122,0.078,north-northeast,1.1,Yes
2023/10/27,14:00,0.150,0.137,0.222,0.209,0.211,0.124,0.078,north-northeast,1.0,Yes
2023/10/27,14:10,0.152,0.137,0.221,0.211,0.212,0.122,0.078,north-northeast,1.7,Yes
2023/10/27,14:20,0.150,0.138,0.224,0.209,0.213,0.122,0.079,north,1.2,Yes
2023/10/27,14:30,0.152,0.138,0.222,0.212,0.213,0.123,0.078,northwest,1.6,Yes
2023/10/27,14:40,0.153,0.138,0.225,0.211,0.214,0.125,0.080,north-northwest,0.9,Yes
2023/10/27,14:50,0.155,0.141,0.226,0.213,0.217,0.126,0.080,-,CALM,Yes
2023/10/27,15:00,0.157,0.142,0.229,0.216,0.217,0.126,0.081,northwest,2.0,Yes
2023/10/27,15:10,0.157,0.144,0.229,0.215,0.219,0.128,0.082,west-northwest,0.8,Yes
2023/10/27,15:20,0.161,0.145,0.231,0.218,0.218,0.129,0.083,northwest,1.7,Yes
2023/10/27,15:30,0.161,0.147,0.231,0.218,0.221,0.131,0.085,west-northwest,3.3,Yes
2023/10/27,15:40,0.163,0.148,0.235,0.221,0.222,0.135,0.087,west-northwest,5.0,Yes
2023/10/27,15:50,0.164,0.151,0.236,0.222,0.225,0.138,0.093,west,4.8,Yes
2023/10/27,16:00,0.166,0.151,0.237,0.223,0.224,0.139,0.094,west-northwest,7.5,Yes
2023/10/27,16:10,0.167,0.153,0.237,0.225,0.227,0.140,0.096,west-northwest,2.1,Yes
2023/10/27,16:20,0.169,0.156,0.238,0.224,0.226,0.142,0.098,northeast,2.8,Yes
2023/10/27,16:30,0.172,0.158,0.242,0.230,0.228,0.144,0.099,north-northeast,3.0,Yes
2023/10/27,16:40,0.173,0.159,0.242,0.228,0.230,0.145,0.103,south-southeast,2.7,Yes
2023/10/27,16:50,0.172,0.159,0.241,0.229,0.231,0.145,0.101,southwest,3.4,Yes
2023/10/27,17:00,0.171,0.157,0.241,0.228,0.228,0.142,0.100,southwest,2.9,Yes
2023/10/27,17:10,0.169,0.155,0.234,0.222,0.226,0.140,0.097,southwest,2.3,No
2023/10/27,17:20,0.164,0.151,0.234,0.221,0.224,0.137,0.094,west,1.2,No
2023/10/27,17:30,0.163,0.149,0.230,0.217,0.220,0.134,0.091,west-northwest,0.9,No
2023/10/27,17:40,0.159,0.145,0.228,0.215,0.221,0.132,0.088,northwest,1.2,No
2023/10/27,17:50,0.157,0.143,0.226,0.213,0.217,0.129,0.087,north-northwest,1.2,No
2023/10/27,18:00,0.155,0.141,0.222,0.211,0.216,0.128,0.084,-,CALM,No
2023/10/27,18:10,0.152,0.139,0.221,0.209,0.213,0.126,0.083,-,CALM,No
2023/10/27,18:20,0.153,0.137,0.220,0.208,0.212,0.125,0.082,-,CALM,No
2023/10/27,18:30,0.151,0.137,0.217,0.207,0.212,0.124,0.079,southwest,0.8,No
2023/10/27,18:40,0.151,0.136,0.218,0.206,0.211,0.123,0.080,south-southwest,2.5,No
2023/10/27,18:50,0.150,0.135,0.218,0.206,0.211,0.122,0.079,south,2.2,No
2023/10/27,19:00,0.149,0.136,0.216,0.206,0.209,0.122,0.078,south,2.0,No
2023/10/27,19:10,0.148,0.134,0.217,0.205,0.211,0.122,0.078,south,2.1,No
2023/10/27,19:20,0.148,0.135,0.215,0.205,0.209,0.121,0.077,south-southwest,2.3,No
2023/10/27,19:30,0.148,0.134,0.215,0.204,0.209,0.121,0.077,southwest,2.2,No
2023/10/27,19:40,0.147,0.133,0.215,0.203,0.208,0.121,0.078,south-southwest,2.1,No
2023/10/27,19:50,0.147,0.134,0.216,0.204,0.208,0.120,0.077,south-southwest,2.1,No
2023/10/27,20:00,0.148,0.134,0.214,0.203,0.208,0.121,0.076,south-southwest,2.1,No
2023/10/27,20:10,0.147,0.133,0.215,0.204,0.207,0.119,0.076,south-southwest,1.9,No
2023/10/27,20:20,0.147,0.133,0.214,0.204,0.208,0.121,0.077,southwest,1.6,No
2023/10/27,20:30,0.147,0.133,0.214,0.202,0.208,0.120,0.076,southwest,2.0,No
2023/10/27,20:40,0.146,0.134,0.214,0.203,0.206,0.119,0.077,southwest,1.9,No
2023/10/27,20:50,0.147,0.133,0.214,0.203,0.209,0.120,0.076,south-southwest,2.1,No
2023/10/27,21:00,0.146,0.134,0.215,0.203,0.208,0.121,0.077,southwest,2.3,No
2023/10/27,21:10,0.146,0.134,0.214,0.203,0.208,0.120,0.076,west-southwest,2.0,No
2023/10/27,21:20,0.147,0.133,0.214,0.203,0.208,0.120,0.076,southwest,1.7,No
2023/10/27,21:30,0.147,0.133,0.213,0.202,0.207,0.120,0.076,south-southwest,2.0,No
2023/10/27,21:40,0.147,0.134,0.215,0.203,0.209,0.119,0.076,southwest,1.4,No
2023/10/27,21:50,0.147,0.132,0.214,0.203,0.208,0.120,0.076,west,1.9,No
2023/10/27,22:00,0.147,0.133,0.215,0.203,0.207,0.120,0.076,west,1.8,No
2023/10/27,22:10,0.147,0.132,0.215,0.203,0.208,0.120,0.076,west,1.7,No
2023/10/27,22:20,0.147,0.133,0.215,0.202,0.207,0.120,0.076,west-northwest,1.2,No
2023/10/27,22:30,0.146,0.132,0.215,0.203,0.208,0.120,0.077,northwest,1.4,No
2023/10/27,22:40,0.146,0.133,0.214,0.204,0.207,0.120,0.076,northwest,1.3,No
2023/10/27,22:50,0.147,0.133,0.216,0.203,0.208,0.120,0.077,north-northwest,1.5,No
2023/10/27,23:00,0.147,0.133,0.214,0.202,0.209,0.121,0.076,northwest,2.2,No
2023/10/27,23:10,0.146,0.133,0.214,0.204,0.208,0.121,0.075,northwest,2.7,No
2023/10/27,23:20,0.147,0.133,0.216,0.203,0.210,0.120,0.077,north-northwest,2.5,No
2023/10/27,23:30,0.147,0.133,0.214,0.203,0.208,0.121,0.077,north-northwest,2.1,No
2023/10/27,23:40,0.146,0.132,0.214,0.203,0.209,0.120,0.077,north-northwest,2.5,No
2023/10/27,23:50,0.147,0.132,0.216,0.203,0.207,0.120,0.077,north-northwest,3.0,No
